Weather History for Maryland Science Center, MD

Change the Weather History Date:

Sunday, December 8, 2013

  Actual Average Record
Temperature  
Mean Temperature 32 °F 42 °F  
Max Temperature 35 °F 49 °F 61 °F (2004)
Min Temperature 29 °F 35 °F 23 °F (2008)
Degree Days  
Heating Degree Days 33 23  
Month to date heating degree days 145 154  
Since 1 July heating degree days 770 805  
Cooling Degree Days 0 0  
Month to date cooling degree days 0 0  
Year to date cooling degree days 2023 1665  
Moisture  
Dew Point 23 °F    
Average Humidity 68    
Maximum Humidity 89    
Minimum Humidity 47    
Precipitation  
Precipitation 0.61 in 0.12 in 0.61 in (2013)
Month to date precipitation 1.56 0.81  
Year to date precipitation 38.52 38.29  
Sea Level Pressure  
Sea Level Pressure 30.50 in    
Wind  
Wind Speed - (North)    
Max Wind Speed -    
Max Gust Speed -    
T = Trace of Precipitation, MM = Missing Value Source: NWS Daily Summary

Daily Weather History Graph

Daily Weather History Graph

Search for Another Location

Airport:

Trip Planner

Search our weather history database for the weather conditions in past years. The results will help you decide how hot, cold, wet, or windy it might be!

Date:

Astronomy

Dec. 08, 2013 Rise Set
Actual Time 7:13 AM EST 4:43 PM EST
Civil Twilight 6:43 AM EST 5:13 PM EST
Nautical Twilight 6:10 AM EST 5:46 PM EST
Astronomical Twilight 5:37 AM EST 6:19 PM EST
Moon 11:34 AM EST (12/8) 11:28 PM EST (12/8)
Length of Visible Light 10h 29m
Length of Day
9h 29m
Waxing Crescent, 40% of the Moon is Illuminated
Dec 8
Waxing Crescent
Dec 9
First Quarter
Dec 17
Full
Dec 25
Last Quarter
Jan 1
New

Hourly Weather History & Observations

Time (EST) Temp. Dew Point Humidity Pressure Visibility Wind Dir Wind Speed Gust Speed Precip Events Conditions
12:54 AM 35.1 °F 18.0 °F 50% 30.54 in - North - - N/A   Unknown
1:54 AM 34.0 °F 19.0 °F 54% 30.54 in - North - - N/A   Unknown
2:54 AM 33.1 °F 18.0 °F 54% 30.55 in - North - - N/A   Unknown
3:54 AM 32.0 °F 18.0 °F 56% 30.55 in - North - - N/A   Unknown
4:54 AM 32.0 °F 18.0 °F 56% 30.56 in - North - - N/A   Unknown
5:54 AM 32.0 °F 18.0 °F 56% 30.57 in - North - - N/A   Unknown
6:54 AM 32.0 °F 18.0 °F 56% 30.60 in - North - - N/A   Unknown
7:54 AM 32.0 °F 17.1 °F 54% 30.58 in - North - - N/A   Unknown
8:54 AM 32.0 °F 16.0 °F 52% 30.58 in - North - - N/A   Unknown
9:54 AM 33.1 °F 16.0 °F 50% 30.60 in - North - - N/A   Unknown
10:54 AM 30.0 °F 21.9 °F 72% 30.56 in - North - - 0.01 in   Unknown
11:54 AM 28.9 °F 25.0 °F 85% 30.61 in - North - - 0.05 in   Unknown
12:11 PM 30.0 °F 24.1 °F 79% 30.62 in - North - - 0.01 in   Unknown
12:54 PM 28.9 °F 25.0 °F 85% 30.58 in - North - - 0.07 in   Unknown
1:54 PM 30.0 °F 25.0 °F 82% 30.48 in - North - - 0.11 in   Unknown
2:54 PM 30.0 °F 25.0 °F 82% 30.42 in - North - - 0.06 in   Unknown
3:54 PM 30.9 °F 25.0 °F 79% 30.46 in - North - - 0.05 in   Unknown
4:32 PM 30.0 °F 25.0 °F 82% 30.55 in - North - - 0.04 in   Unknown
4:54 PM 30.0 °F 25.0 °F 82% 30.51 in - North - - 0.05 in   Unknown
5:54 PM 30.9 °F 27.0 °F 85% 30.44 in - North - - 0.02 in   Unknown
6:54 PM 32.0 °F 27.0 °F 82% 30.41 in - North - - 0.01 in   Unknown
7:54 PM 32.0 °F 28.0 °F 85% 30.41 in - North - - N/A   Unknown
8:54 PM 32.0 °F 28.9 °F 88% 30.37 in - North - - 0.01 in   Unknown
9:54 PM 33.1 °F 30.0 °F 89% 30.37 in - North - - 0.02 in   Unknown
10:54 PM 34.0 °F 30.0 °F 85% 30.32 in - North - - 0.14 in   Unknown
11:54 PM 35.1 °F 30.0 °F 82% 30.31 in - North - - 0.01 in   Unknown